Location: Newark
(55.1520°N, 2.9990°W)
Time: 04:09:22
(UTC+00:00)

N. Korean satellite - Pass Details

Date: 23 September 2020
Orbit: 453 x 505 km, 97.2° (Epoch: 21 October)

Event Time Altitude Azimuth Distance (km) Brightness Sun altitude
Rises 04:34:59 0° 29° (NNE) 2,612 11.1 -12.8°
Reaches altitude 10° 04:38:09 10° 59° (ENE) 1,712 10.7 -12.3°
Maximum altitude 04:39:51 13° 86° (E) 1,538 10.4 -12.1°
Drops below altitude 10° 04:41:32 10° 114° (ESE) 1,694 10.1 -11.9°
Sets 04:44:37 0° 144° (SE) 2,556 10.5 -11.4°
